Location: Dilsberg
(49.3983°N, 8.8354°E)
Time: 00:18:18
(UTC+00:00)

Cosmos 1356 Rocket - Pass Details

Date: 19 May 2025
Orbit: 517 x 565 km, 81.2° (Epoch: 22 June)

Event Time Altitude Azimuth Distance (km) Brightness Sun altitude
Exits shadow 20:28:29 14° 156° (SSE) 1,599 5.1 -10.8°
Maximum altitude 20:31:32 36° 94° (E) 908 4.1 -11.1°
Drops below altitude 10° 20:35:19 10° 28° (NNE) 1,861 6.3 -11.5°
Sets 20:37:36 0° 19° (NNE) 2,755 7.4 -11.7°
